Location: ????????
(55.6189°N, 38.3031°E)
Time: 12:48:42
(UTC+00:00)

NOSS 2-2 (E) - Pass Details

Date: 15 November 2019
Orbit: 488 x 1718 km, 63.3° (Epoch: 09 December)

Event Time Altitude Azimuth Distance (km) Brightness Sun altitude
Exits shadow 01:37:23 79° 228° (SW) 985 4.3 -28.3°
Maximum altitude 01:37:26 79° 222° (SW) 987 4.3 -28.3°
Drops below altitude 10° 01:44:55 10° 138° (SE) 3,187 7.6 -27.2°
Sets 01:48:08 0° 137° (SE) 4,345 8.4 -26.8°
